Погода в Каролино-Бугазе

Украина / Одесская область     46°09′03″N   30°32′18″E
темп.,
°C
ветер,
м/с
пор.,
м/с
влажн.,
%
обл.,
%
осадки,
мм/ч
давл.,
гПа
погр.,
м
2 марта, вт
вт223:00+3с588099 0.0 1032559
02:00+1с488392 0.0 1033322
05:00+2сз357574 0.0 1032232
08:00+2ссз347580 0.0 1032211
11:00+4з34645 0.0 1031677
14:00+6з466242 0.0 1029645
17:00+7з6106464 0.0 1026468
20:00+6з6106951 0.0 1025192
3 марта, ср
ср323:00+6сз6127435 0.0 1025310
02:00+4ссз7138119 0.0 1026478
05:00+4с61076100 0.0 1027714
08:00+4ссз6106782 0.0 1029650
11:00+7ссз57580 0.0 1029747
14:00+8сз45500 0.0 1029890
17:00+8сз35520 0.0 1028669
20:00+6зсз226050 0.0 102924
4 марта, чт
чт423:00+5юз236532 0.0 102823
02:00+4юз446716 0.0 102652
05:00+3юз46850 0.0 102496
08:00+5юз59830 0.0 1022232
11:00+8ююз711680 0.0 1020435
14:00+9ююз912670 0.0 1018495
17:00+7ююз912761 0.0 1015282
20:00+6ююз812831 0.0 1015226
5 марта, пт
пт523:00+6юз58861 0.0 1014150
02:00+5юз34875 0.0 101452
05:00+5ююз448636 0.0 101245
08:00+6ююз348169 0.0 101298
11:00+9юз3563100 0.0 1011231
14:00+11ююз455897 0.0 1010297
17:00+11юз235551 0.0 101043
20:00+9ссв356226 0.0 101185
6 марта, сб
сб623:00+7св587441 0.0 1012154
02:00+6с6108771 0.0 1013283
05:00+5с5989100 0.0 1015312
08:00+2ссв91286100 0.1 1018590
11:00+4ссв81055100 0.0 1020994
14:00+4с8946100 0.0 10221242
17:00+3с7943100 0.0 10231323
20:00+1с595067 0.0 1026567